Location: Casilda
(33.0440°S, 61.1680°W)
Time: 00:18:08
(UTC-03:00)

ISS - Pass Details

Date: 29 March 2020
Orbit: 417 x 423 km, 51.6° (Epoch: 29 March)

Event Time Altitude Azimuth Distance (km) Brightness Sun altitude
Exits shadow 05:00:08 11° 155° (SSE) 1,485 -0.5 -28.8°
Drops below altitude 10° 05:00:15 10° 154° (SSE) 1,524 -0.5 -28.8°
Sets 05:02:34 0° 143° (SE) 2,407 0.8 -28.3°
